Location: Asbacherhof
(48.8543°N, 10.7903°E)
Time: 23:17:08
(UTC+00:00)

Cosmos 1025 Rocket - Pass Details

Date: 26 May 2022
Orbit: 593 x 618 km, 82.5° (Epoch: 26 June)

Event Time Altitude Azimuth Distance (km) Brightness Sun altitude
Exits shadow 00:47:05 30° 175° (S) 1,088 3.8 -17.0°
Maximum altitude 00:49:08 72° 97° (E) 640 3.1 -16.9°
Drops below altitude 10° 00:53:26 10° 14° (NNE) 1,955 6.9 -16.6°
Sets 00:55:39 0° 12° (NNE) 2,859 8.1 -16.5°
